[[{"header":{"parameterUnit":"m.s-1","parameterCategory":1,"la1":30.2991,"la2":30.254,"lo1":-89.0895,"lo2":-89.0444,"dy":0.0017,"dx":0.0017,"nx":28,"ny":28,"refTime":"2025-05-01T03:00:00:Z","depth":0,"parameterNumber":2,"parameterNumberName":"U-component_of_WINDS"},"data":[0,0,0,0,0,0,0,0,0,0,0,0,0,0,0,0,0,0,0,0,0,0,0,0,0,0,0,0,0,0,0,0,0,0,0,0,0,0,0,0,0,0,0,0,0,0,0,0,0,0,0,0,0,0,0,0,0,0,-1.8413,-1.8412,0,-1.8378,-1.8377,-1.8377,-1.8295,-1.8293,-1.8291,-1.829,-1.8257,-1.8257,-1.8258,0,0,0,0,0,0,0,0,0,0,0,0,0,-1.8411,-1.8411,-1.8413,-1.8412,-1.8412,-1.8378,-1.8377,-1.8377,-1.8295,-1.8293,-1.8291,-1.8289,-1.8256,-1.8257,-1.8258,0,0,0,0,0,0,0,0,0,0,0,0,0,-1.8398,-1.8411,-1.8413,-1.8367,-1.8362,-1.8378,-1.8377,-1.8377,-1.8296,-1.8293,-1.829,-1.8288,-1.8256,-1.8257,-1.8258,-1.8317,0,0,-1.8261,-1.8262,0,0,0,0,0,0,0,0,-1.8398,-1.8398,-1.8374,-1.837,-1.8365,-1.8338,-1.8365,-1.8357,-1.8296,-1.8321,-1.829,-1.8287,-1.8286,-1.8284,-1.8284,-1.8315,-1.8314,-1.8262,-1.8262,-1.8263,-1.8263,0,0,0,0,0,0,0,-1.8399,-1.8399,-1.8399,-1.8374,-1.8368,-1.8349,-1.8344,-1.8363,-1.8318,-1.8319,-1.8312,-1.8309,-1.8283,-1.8283,-1.8282,-1.8313,-1.8262,-1.8263,-1.8263,-1.8264,-1.8392,-1.8394,0,0,0,0,0,0,-1.8407,-1.84,-1.84,-1.8398,-1.8376,-1.8351,-1.8346,-1.8349,-1.8318,-1.8311,-1.8312,-1.8306,-1.8282,-1.8281,-1.8281,-1.8347,-1.8263,-1.8264,-1.8264,-1.8389,-1.8392,-1.8395,0,0,0,0,0,0,-1.8407,-1.8407,-1.8401,-1.8397,-1.8395,-1.8354,-1.8358,-1.835,-1.8349,-1.8313,-1.8305,-1.8319,-1.828,-1.8279,-1.8308,-1.8345,-1.8264,-1.8265,-1.8386,-1.839,-1.8394,-1.8481,0,0,0,0,0,0,-1.8407,-1.8408,-1.8429,-1.8398,-1.8396,-1.8429,-1.8361,-1.8351,-1.8351,-1.8343,-1.8318,-1.8311,-1.8278,-1.8307,-1.8309,-1.8345,-1.8266,-1.8382,-1.8388,-1.8393,-1.8475,-1.8488,-1.8499,0,0,0,0,0,-1.8407,-1.8455,-1.843,-1.8431,-1.8421,-1.8431,-1.843,-1.839,-1.8355,-1.8376,-1.8352,-1.8312,-1.8341,-1.8311,-1.8313,-1.8349,-1.838,-1.8386,-1.8392,-1.8469,-1.8485,-1.8499,0,0,0,0,0,0,-1.8492,-1.845,-1.8422,-1.8461,-1.845,-1.8417,-1.8442,-1.8408,-1.8407,-1.8399,-1.8351,-1.8346,-1.8382,-1.8368,-1.8336,-1.8405,-1.8354,-1.8361,-1.8412,-1.8427,-1.8439,-1.8441,-1.8267,0,0,0,0,0,-1.8515,-1.8526,-1.8489,-1.8527,-1.8523,-1.8484,-1.8487,-1.8458,-1.8444,-1.844,-1.8418,-1.8408,-1.8414,-1.842,-1.8424,-1.8473,-1.8467,-1.8499,-1.8511,-1.8521,-1.8528,-1.8553,-1.8568,-1.8416,-1.8416,-1.8416,0,0,-1.8562,-1.8541,-1.8551,-1.8544,-1.8532,-1.8545,-1.8481,-1.8497,-1.8507,-1.8442,-1.8468,-1.8453,-1.8438,-1.8477,-1.8494,-1.8467,-1.8568,-1.8529,-1.8537,-1.8538,-1.8561,-1.8576,-1.8588,-1.842,-1.8419,-1.8419,0,0,-1.8656,-1.8641,-1.8671,-1.8661,-1.8643,-1.8617,-1.8625,-1.8597,-1.8584,-1.8609,-1.8561,-1.8573,-1.8585,-1.8577,-1.8574,-1.8667,-1.863,-1.867,-1.8732,-1.8758,-1.877,-1.878,-1.8814,-1.8826,-1.8676,-1.8677,-1.8677,0,-1.8718,-1.8735,-1.8692,-1.8711,-1.871,-1.8652,-1.8683,-1.8675,-1.866,-1.8661,-1.8632,-1.8647,-1.8633,-1.867,-1.8693,-1.8692,-1.87,-1.8672,-1.8772,-1.8782,-1.8791,-1.8822,-1.8835,-1.8681,-1.8681,-1.868,-1.868,0,-1.8812,-1.8825,-1.8852,-1.8839,-1.884,-1.8866,-1.8827,-1.8835,-1.8806,-1.8783,-1.881,-1.8792,-1.8791,-1.8798,-1.877,-1.8832,-1.8816,-1.878,-1.8728,-1.8811,-1.884,-1.8851,-1.8689,-1.8687,-1.8685,-1.8684,0,0,-1.8957,-1.892,-1.8931,-1.8924,-1.8901,-1.8911,-1.8935,-1.8934,-1.8941,-1.8934,-1.8953,-1.8965,-1.8932,-1.8929,-1.89,-1.8923,-1.8998,-1.8884,-1.8883,-1.8906,-1.9066,-1.9093,-1.9108,-1.8974,-1.8976,-1.8977,-1.9067,0,-1.9045,-1.9082,-1.9044,-1.909,-1.9102,-1.9047,-1.9068,-1.9057,-1.9037,-1.9045,-1.9024,-1.9033,-1.8988,-1.8987,-1.9007,-1.8985,-1.903,-1.8978,-1.8992,-1.8993,-1.8997,-1.9123,-1.9151,-1.9237,-1.9078,-1.908,-1.9081,0,-1.9153,-1.915,-1.9196,-1.9171,-1.9175,-1.9194,-1.9191,-1.9199,-1.9186,-1.917,-1.9168,-1.9132,-1.9155,-1.9105,-1.9136,-1.9101,-1.9105,-1.9096,-1.9098,-1.9097,-1.9042,-1.9126,-1.9263,-1.9276,-1.9099,-1.9097,-1.9096,0,-1.9254,-1.9262,-1.929,-1.9287,-1.9258,-1.9273,-1.9262,-1.9246,-1.9249,-1.9247,-1.9248,-1.9249,-1.9249,-1.9251,-1.9218,-1.9184,-1.9253,-1.92,-1.9241,-1.9243,-1.9258,-1.9258,-1.9398,-1.9261,-1.9261,-1.9261,-1.926,0,-1.9357,-1.9387,-1.9336,-1.9353,-1.9387,-1.9344,-1.9378,-1.9361,-1.9348,-1.9363,-1.9316,-1.9331,-1.9286,-1.9296,-1.927,-1.93,-1.9301,-1.9289,-1.9282,-1.9293,-1.9295,-1.9295,-1.9288,-1.9264,-1.9263,-1.9263,-1.9262,0,-1.9475,-1.9442,-1.947,-1.944,-1.9434,-1.946,-1.9435,-1.9451,-1.9429,-1.9448,-1.945,-1.9415,-1.9425,-1.9392,-1.9396,-1.9379,-1.9423,-1.9406,-1.9428,-1.9422,-1.9466,-1.9462,-1.9611,-1.9629,-1.9481,-1.9482,-1.9484,0,-1.9543,-1.9565,-1.9538,-1.9544,-1.9535,-1.9546,-1.9548,-1.9507,-1.9511,-1.9499,-1.9517,-1.9523,-1.9525,-1.9544,-1.952,-1.9524,-1.9507,-1.9559,-1.9507,-1.9518,-1.9508,-1.9507,-1.9509,-1.9569,-1.9571,-1.9572,-1.9574,0,-1.9666,-1.9649,-1.9653,-1.9652,-1.9656,-1.9653,-1.9648,-1.9656,-1.9612,-1.9619,-1.9629,-1.9631,-1.9636,-1.9643,-1.9642,-1.9631,-1.9596,-1.959,-1.96,-1.9612,-1.9623,-1.9618,-1.9457,-1.9587,-1.9586,-1.9585,-1.9584,-1.9583,-1.9761,-1.9778,-1.9763,-1.9769,-1.9761,-1.9757,-1.9771,-1.975,-1.9757,-1.9757,-1.9733,-1.9748,-1.9735,-1.973,-1.9723,-1.9735,-1.9711,-1.9725,-1.9729,-1.9733,-1.9741,-1.9622,-1.9735,-1.9734,-1.9734,-1.9734,-1.9733,0,-1.9882,-1.9869,-1.9876,-1.987,-1.9875,-1.9841,-1.9833,-1.9841,-1.9854,-1.9845,-1.9849,-1.986,-1.9867,-1.9844,-1.9848,-1.9862,-1.9846,-1.9864,-1.9863,-1.9861,-1.9762,-1.9753,-1.9877,-1.9877,-1.9877,-1.9877,-1.9877,-1.9877,-1.9946,-1.9974,-1.9955,-1.9979,-1.9966,-1.9979,-1.9978,-1.9975,-1.9967,-1.9982,-1.9987,-1.9972,-1.9958,-1.996,-1.9966,-1.9959,-1.9963,-1.9987,-1.9975,-1.9882,-1.9868,-1.9855,-1.9846,-1.9988,-1.9988,-2.0073,-2.0074,-2.0075]},{"header":{"parameterUnit":"m.s-1","parameterCategory":1,"la1":30.2991,"la2":30.254,"lo1":-89.0895,"lo2":-89.0444,"dy":0.0017,"dx":0.0017,"nx":28,"ny":28,"refTime":"2025-05-01T03:00:00:Z","depth":0,"parameterNumber":3,"parameterNumberName":"V-component_of_WINDS"},"data":[0,0,0,0,0,0,0,0,0,0,0,0,0,0,0,0,0,0,0,0,0,0,0,0,0,0,0,0,0,0,0,0,0,0,0,0,0,0,0,0,0,0,0,0,0,0,0,0,0,0,0,0,0,0,0,0,0,0,4.7046,4.7046,0,4.7032,4.7032,4.7032,4.7056,4.7057,4.7058,4.7058,4.7039,4.7038,4.7036,0,0,0,0,0,0,0,0,0,0,0,0,0,4.7091,4.709,4.7046,4.7046,4.7046,4.7032,4.7032,4.7032,4.7056,4.7057,4.7058,4.7059,4.7039,4.7038,4.7036,0,0,0,0,0,0,0,0,0,0,0,0,0,4.7074,4.709,4.7046,4.7056,4.7057,4.7032,4.7032,4.7031,4.7056,4.7057,4.7058,4.7059,4.704,4.7038,4.7036,4.6999,0,0,4.703,4.7029,0,0,0,0,0,0,0,0,4.7075,4.7072,4.7055,4.7056,4.7057,4.7047,4.704,4.702,4.7055,4.7056,4.7058,4.706,4.704,4.7038,4.7033,4.6998,4.6997,4.703,4.7029,4.7028,4.7027,0,0,0,0,0,0,0,4.7076,4.7073,4.704,4.7055,4.7056,4.7061,4.7059,4.7037,4.7041,4.7056,4.7058,4.7056,4.7041,4.7035,4.7032,4.6997,4.703,4.7028,4.7027,4.7026,4.6931,4.693,0,0,0,0,0,0,4.7076,4.7073,4.7041,4.704,4.7069,4.7059,4.7058,4.7049,4.7041,4.7042,4.7055,4.7057,4.7037,4.7035,4.7032,4.6988,4.7028,4.7026,4.7025,4.6933,4.6931,4.693,0,0,0,0,0,0,4.7077,4.7073,4.7041,4.7057,4.7054,4.7057,4.7047,4.7048,4.7042,4.7041,4.7041,4.7048,4.7038,4.7035,4.7007,4.6988,4.7025,4.7023,4.6934,4.6932,4.693,4.69,0,0,0,0,0,0,4.7078,4.7073,4.706,4.7057,4.7053,4.7018,4.7045,4.7047,4.7039,4.7042,4.7034,4.7034,4.7039,4.701,4.7005,4.6986,4.7022,4.6936,4.6933,4.6931,4.6903,4.6897,4.6893,0,0,0,0,0,4.708,4.7051,4.7059,4.7055,4.7036,4.7017,4.7014,4.7022,4.7037,4.7023,4.7023,4.7034,4.6991,4.7007,4.7002,4.6981,4.6937,4.6934,4.6931,4.6905,4.6899,4.6893,0,0,0,0,0,0,4.7049,4.705,4.706,4.7029,4.7023,4.7021,4.7003,4.7014,4.7002,4.7005,4.7014,4.7012,4.6983,4.6979,4.6997,4.6946,4.6967,4.6962,4.6949,4.6942,4.6937,4.6938,4.702,0,0,0,0,0,4.7039,4.7025,4.7026,4.6999,4.6995,4.7,4.6992,4.6998,4.6992,4.6989,4.6986,4.6978,4.6963,4.6953,4.6938,4.6903,4.6902,4.6887,4.6882,4.6877,4.6873,4.6855,4.6848,4.692,4.692,4.692,0,0,4.7017,4.7016,4.7006,4.6992,4.6988,4.6972,4.6997,4.6979,4.6967,4.6985,4.696,4.6958,4.695,4.6919,4.6905,4.6915,4.6854,4.6874,4.687,4.6868,4.6851,4.6844,4.6838,4.6918,4.6918,4.6918,0,0,4.6969,4.6967,4.6945,4.6941,4.6936,4.694,4.6934,4.6931,4.6931,4.6907,4.6921,4.6906,4.6879,4.6873,4.6866,4.6819,4.6829,4.6814,4.6786,4.6768,4.6763,4.6758,4.6741,4.6734,4.681,4.681,4.681,0,4.6942,4.692,4.6931,4.6913,4.6906,4.6925,4.6902,4.6897,4.6886,4.6881,4.6893,4.6862,4.6857,4.6825,4.6814,4.6808,4.6801,4.6814,4.6763,4.6758,4.6754,4.6737,4.6731,4.6808,4.6808,4.6808,4.6809,0,4.6887,4.6872,4.6854,4.6846,4.6837,4.6816,4.6823,4.6813,4.6821,4.6823,4.6798,4.6794,4.678,4.6773,4.6779,4.6742,4.6749,4.6762,4.6783,4.6745,4.673,4.6723,4.6805,4.6806,4.6807,4.6807,0,0,4.6817,4.6818,4.6811,4.6808,4.6804,4.6792,4.6772,4.676,4.6751,4.6744,4.6727,4.6705,4.6718,4.671,4.6717,4.6701,4.6664,4.6716,4.6716,4.6706,4.6622,4.6612,4.6605,4.6671,4.667,4.6669,4.6623,0,4.677,4.6737,4.6747,4.6714,4.6699,4.6718,4.6701,4.6696,4.6698,4.6685,4.6687,4.6672,4.669,4.6685,4.6671,4.6671,4.6647,4.6675,4.6654,4.6653,4.6655,4.6597,4.6585,4.6542,4.6617,4.6616,4.6615,0,4.6709,4.6702,4.6667,4.6668,4.6662,4.6646,4.6637,4.6625,4.6621,4.6623,4.6616,4.6626,4.6606,4.6628,4.66,4.6619,4.6612,4.6611,4.6609,4.6607,4.6631,4.6592,4.6528,4.6521,4.6606,4.6607,4.6608,0,4.6661,4.6643,4.662,4.6617,4.6617,4.6605,4.6605,4.6602,4.6594,4.6586,4.6581,4.657,4.6563,4.6554,4.656,4.6576,4.6531,4.6554,4.6532,4.6532,4.652,4.6521,4.6453,4.6517,4.6517,4.6517,4.6517,0,4.6607,4.6584,4.6599,4.6584,4.6561,4.6573,4.6548,4.655,4.6547,4.6533,4.6548,4.6534,4.6544,4.6531,4.6536,4.6512,4.6509,4.651,4.6511,4.6508,4.6508,4.6502,4.6505,4.6515,4.6516,4.6516,4.6516,0,4.6548,4.6557,4.6533,4.6536,4.6537,4.6519,4.6521,4.6507,4.6512,4.6493,4.649,4.6496,4.6481,4.6488,4.6471,4.6475,4.6444,4.645,4.6446,4.6447,4.6425,4.6426,4.6351,4.6341,4.6411,4.6411,4.641,0,4.6512,4.6496,4.6498,4.6491,4.6489,4.6477,4.647,4.6482,4.6474,4.6469,4.6456,4.6444,4.6434,4.641,4.6412,4.64,4.6405,4.6379,4.6403,4.6401,4.6404,4.6405,4.6403,4.6374,4.6373,4.6372,4.6372,0,4.6447,4.6453,4.6443,4.6436,4.6428,4.6422,4.6417,4.641,4.6422,4.6412,4.6399,4.6392,4.6377,4.6364,4.6354,4.6352,4.6363,4.6365,4.6359,4.6355,4.6353,4.6354,4.6432,4.6366,4.6367,4.6367,4.6367,4.6368,4.6398,4.6385,4.6385,4.6374,4.6373,4.6369,4.6357,4.6361,4.635,4.634,4.6348,4.6331,4.6328,4.6317,4.6313,4.6301,4.631,4.6302,4.63,4.6297,4.6294,4.6357,4.6299,4.6299,4.6299,4.6299,4.6299,0,4.6334,4.6335,4.6326,4.632,4.6311,4.6326,4.6322,4.6313,4.63,4.6297,4.6288,4.6273,4.6261,4.6263,4.6252,4.6241,4.6246,4.6238,4.6238,4.6238,4.6286,4.6292,4.6234,4.6234,4.6234,4.6234,4.6234,4.6234,4.6299,4.6278,4.6284,4.6262,4.6264,4.625,4.6246,4.6242,4.624,4.6223,4.6214,4.6217,4.6216,4.6205,4.6195,4.6196,4.6191,4.618,4.6183,4.6228,4.6234,4.624,4.6246,4.6179,4.6179,4.6135,4.6135,4.6135]}]]